Location: *
(32.8667°N, 13.1833°E)
Time: 03:15:43
(UTC+00:00)

Cosmos 1954 Rocket - Pass Details

Date: 18 July 2019
Orbit: 751 x 782 km, 74.0° (Epoch: 24 August)

Event Time Altitude Azimuth Distance (km) Brightness Sun altitude
Exits shadow 21:19:59 62° 335° (NNW) 855 4.3 -29.7°
Drops below altitude 10° 21:24:33 10° 12° (NNE) 2,311 7.0 -30.2°
Sets 21:26:57 0° 14° (NNE) 3,246 7.9 -30.5°
